Погода в Нязепетровске

Россия / Челябинская область     56°03′13″N   59°36′34″E
темп.,
°C
ветер,
м/с
пор.,
м/с
влажн.,
%
обл.,
%
осадки,
мм/ч
давл.,
гПа
погр.,
м
20 апреля, вт
вт2023:00−3ю11560 0.0 103410
02:00−4зсз00580 0.0 103510
05:00−4з115725 0.0 103610
08:000зсз13435 0.0 1035297
11:00+4зсз33326 0.0 10341255
14:00+7зсз45315 0.0 10321535
17:00+7зсз45330 0.0 10311554
20:00+3зсз23540 0.0 103154
21 апреля, ср
ср2123:000зсз11620 0.0 103210
02:000з11650 0.0 103310
05:00−1зюз11680 0.0 103310
08:00+3з13550 0.0 1034233
11:00+8сз22400 0.0 1033857
14:00+11з10344 0.0 10321250
17:00+12ю12325 0.0 10321393
20:00+7юв2251100 0.0 103111
22 апреля, чт
чт2223:00+4вюв226582 0.0 103319
02:00+3вюв226629 0.0 103315
05:00+2юв116999 0.0 103410
08:00+4юв1361100 0.0 1033112
11:00+9ю2442100 0.0 1033495
14:00+11ю4636100 0.0 10321280
17:00+10ю464599 0.0 1033979
20:00+7ююв2456100 0.0 103282
23 апреля, пт
пт2323:00+6ю3860100 0.0 1032236
02:00+5юв1166100 0.0 103220
05:00+5ю1268100 0.0 103238
08:00+4юв3588100 0.6 1032567
11:00+6ю3883100 0.8 1031938
14:00+10юз595999 0.2 10301573
17:00+10ю2461100 0.3 10291203
20:00+8вюв1172100 0.0 102816
24 апреля, сб
сб2423:00+7в1183100 0.0 102712
02:00+6в2186100 0.0 102616
05:00+6юв1287100 0.1 102535
08:00+6юв2693100 0.9 1024403
11:00+5юв4895100 1.3 1023772
14:00+8ююв5771100 0.1 10211122
17:00+7ююв5984100 1.1 10201033
20:00+5вюв41083100 0.4 1019995